Location: Geremba
(10.4250°N, 67.2394°W)
Time: 22:27:31
(UTC+00:00)

Daily predictions for brighter satellites

Satellite Brightness Start Highest point End
(mag) Time Altitude Azimuth Time Altitude Azimuth Time Altitude Azimuth
PSLV R/B 4.1 22:12:18 10° WNW 22:15:15 57° NNE 22:25:43 10° E
Cosmos 2333 Rocket 3.9 22:31:21 10° SE 22:34:01 13° ESE 22:36:41 10° ENE
Meteor 2-2 Rocket 4.3 22:32:16 10° S 22:37:55 60° E 22:43:28 10° NNE
IRS-1C 4.1 22:32:37 10° SSE 22:37:56 88° E 22:43:14 10° NNW
COSMO-SKYMED 1 2.5 22:33:51 10° N 22:37:57 85° WNW 22:42:04 10° SSW
Cosmos 2221 4.4 22:36:43 10° ESE 22:38:01 11° E 22:39:17 10° ENE
SAR-Lupe-4 4.1 22:39:03 10° S 22:42:34 64° WSW 22:46:04 10° NNW
SL-24 R/B - RUBIN 2 4.3 22:37:16 10° SSW 22:43:27 87° ESE 22:49:03 10° NNE
USA 308 3.4 22:44:54 10° SE 22:45:54 12° ESE 22:46:05 12° ESE
BREEZE-M (TANK) 3.3 22:37:15 10° SSW 22:46:31 61° SE 22:49:08 14° NE
ATLAS 2A CENTAUR R/B 4.4 22:31:34 10° WNW 22:46:42 29° N 22:51:17 12° NE
Cosmos 2227 Rocket 3.4 22:43:21 10° NNE 22:47:15 19° ENE 22:51:09 10° ESE
NATO 3D Rocket 3.7 22:43:33 10° WNW 22:48:12 62° SSW 22:53:10 10° ESE
H-2A R/B 1.5 22:48:02 10° NNW 22:49:49 21° NNE 22:50:35 18° ENE
YAOGAN 1 3.3 22:47:01 10° SE 22:50:40 28° ENE 22:54:19 10° NNE
Okean 1-7 Rocket 4.0 22:47:33 10° NNW 22:51:51 66° W 22:56:10 10° S
Cosmos 1898 Rocket 4.3 22:49:54 10° SSW 22:54:53 51° WNW 22:59:51 10° N
Cosmos 2322 Rocket 3.6 22:53:33 10° SE 22:57:09 17° ESE 22:58:40 16° E
USA 290 2.7 22:58:33 10° NNW 23:01:45 62° WSW 23:04:56 10° S
Meteor 2-6 Rocket 4.3 22:57:05 10° SSE 23:02:20 50° E 23:07:44 10° NNE
USA 59 Rocket 0.9 22:59:42 10° S 23:05:35 44° ESE 23:08:10 23° NE
Cosmos-2242 3.9 23:01:53 10° SSW 23:05:56 48° W 23:10:01 10° N
ATLAS CENTAUR R/B 0.4 23:03:49 10° NNW 23:06:48 59° ENE 23:09:42 10° SSE
Atlas Centaur 2 1.4 23:14:16 10° WSW 23:17:43 54° NNW 23:19:01 34° NNE
Orbus 21S 1.4 23:15:40 10° WNW 23:17:49 90° SSW 23:18:55 34° ESE
Meteor 2-10 4.2 23:16:24 10° N 23:21:49 57° E 23:27:23 10° SSE
SL-16 R/B 2.1 23:19:03 10° S 23:24:41 77° ESE 23:28:28 22° NNE
Cosmos 1953 Rocket 3.8 23:20:56 10° N 23:25:21 71° W 23:29:46 10° S
Cosmos 1655 Rocket 4.4 23:20:37 10° NNW 23:26:44 66° W 23:32:53 10° S
Cosmos 1812 Rocket 3.5 23:22:50 10° S 23:27:06 58° E 23:28:25 39° NE
Ariane H10+ 3.0 23:21:23 10° W 23:29:59 50° SSW 23:32:49 24° SE
NOAA 6 3.9 23:26:00 10° SSE 23:31:02 60° ENE 23:36:04 10° N
Cosmos 1867 4.0 23:26:28 10° N 23:30:47 36° NE 23:30:47 36° NE
OceanSat 1 rocket 4.5 23:26:55 10° SSE 23:31:43 70° ENE 23:36:26 10° N
NOSS 2-1 (C) 3.9 23:28:14 10° SSW 23:34:33 77° ESE 23:36:05 44° NE
Cosmos 2285 Rocket 4.1 23:28:33 10° S 23:34:37 52° E 23:36:42 37° NE
Cosmos 2297 Rocket 3.8 23:34:46 10° NW 23:39:52 36° WSW 23:44:58 10° S
IUS-18 SRM-1 3.1 23:42:30 10° SW 23:45:34 61° SE 23:46:46 48° E
Cosmos 1437 Rocket 4.4 23:42:45 10° S 23:44:06 21° SSE 23:44:06 21° SSE
Delta 168 4.2 23:43:30 10° W 23:47:48 49° SSW 23:51:25 22° SE
NOSS 3-1 (C) 2.4 23:43:58 10° SSW 23:48:24 90° ESE 23:48:32 84° NNE
Cosmos 2278 3.9 23:42:56 10° SSW 23:48:36 71° WNW 23:51:22 31° N
Cosmos 2315 Rocket 3.9 23:43:46 10° S 23:49:59 63° E 23:51:29 49° NE
PSLV R/B 4.5 23:46:35 10° S 23:50:23 43° W 23:54:12 10° NNW
